Cosmos 220 Rocket - Orbit

View from above orbital plane
View from above orbital plane
View from above satellite
View from above satellite

Ground track
Ground track

The orbit data is extracted from the following two-line orbital elements,

1 03230U 68040B   13138.53022543  .00001614  00000-0  18554-3 0  9264
2 03230 074.0376 339.6864 0033209 326.4727 033.4350 14.86362505413695
Epoch (UTC): 18 May 2013 12:43:31
Eccentricity: 0.0033209
inclination: 74.0376°
perigee height: 586 km
apogee height: 632 km
right ascension of ascending node: 339.6864°
argument of perigee: 326.4727°
revolutions per day: 14.86362505
mean anomaly at epoch: 33.4350°
orbit number at epoch: 41369

The dashed part of the orbit path shows where the satellite is in the earth's shadow,  

Developed and maintained by Chris Peat, Heavens-Above GmbH. Please read the updated FAQ before sending e-mail. Imprint. DLR